Location: Newark
(25.1987°N, 100.3705°W)
Time: 05:12:32
(UTC+00:00)

LightSail 2 - Pass Details

Date: 12 April 2020
Orbit: 695 x 719 km, 24.0° (Epoch: 28 May)

Event Time Altitude Azimuth Distance (km) Brightness Sun altitude
Exits shadow 10:46:58 52° 256° (WSW) 860 5.1 -21.4°
Maximum altitude 10:48:09 77° 183° (S) 715 5.0 -21.1°
Drops below altitude 10° 10:53:12 10° 98° (E) 2,143 8.5 -20.1°
Sets 10:55:37 0° 97° (E) 3,058 9.5 -19.5°
